TIANMU-1 22

Last updated on Tue Sep 22 2026 00:02:54 GMT+0000 (Coordinated Universal Time)

1 58663U 23208D 26264.56553067 .00005323 00000+0 17346-3 0 9996 2 58663 97.4571 21.3390 0003700 21.2914 338.8481 15.32255393152089
UTC large
Height (km)
Speed (km/s)
/
Latitude / Longitude
Inclination (degrees)
Orbital Period (minutes)
Azimuth
Elevation
Range (km)
Doppler Factor

Next 0 passes for location: London (51.5072 / 0.1276)

No passes found over London.
TIANMU-1 22